Northfield, Minnesota, United States (55057)
Lat: 44.46N, Lon: 93.16W
Wx Zone: MNZ077
Local Info
Past Weather Observations for Today

NOTE: This archive is for the closest National Weather Service station to Northfield. Information may differ from the station used for current weather conditions.

Click here for Long-term Archive

Time Weather Temperature Dewpoint Humidity Pressure Winds Precip Visibility
14:52
Clear
73°F / 23°C 59°F / 15°C 61% 30.04 in
(1017 mb)
S 5.8 mph
(S 9 kph)
- 10SM
14:33
Clear
75°F / 24°C 61°F / 16°C 61% 30.04 in
(1017 mb)
S 6.9 mph
(S 11 kph)
- 10SM
14:13
Clear
75°F / 24°C 59°F / 15°C 57% 30.04 in
(1017 mb)
S 6.9 mph
(S 11 kph)
- 10SM
13:52
Clear
75°F / 24°C 59°F / 15°C 57% 30.04 in
(1017 mb)
S 6.9 mph
(S 11 kph)
- 10SM
13:33
Clear
75°F / 24°C 59°F / 15°C 57% 30.04 in
(1017 mb)
SSE 4.6 mph
(SSE 7 kph)
- 10SM
13:13
Clear
73°F / 23°C 59°F / 15°C 61% 30.04 in
(1017 mb)
S 8.1 mph
(S 13 kph)
- 10SM
12:53
Clear
73°F / 23°C 59°F / 15°C 61% 30.04 in
(1017 mb)
S 6.9 mph
(S 11 kph)
- 10SM
12:32
Clear
73°F / 23°C 59°F / 15°C 61% 30.04 in
(1017 mb)
SSE 6.9 mph
(SSE 11 kph)
- 10SM
12:13
Clear
72°F / 22°C 57°F / 14°C 61% 30.04 in
(1017 mb)
S 9.2 mph
(S 15 kph)
- 10SM
11:53
Clear
72°F / 22°C 59°F / 15°C 65% 30.06 in
(1018 mb)
S 10.4 mph
(S 17 kph)
- 10SM
11:33
Clear
70°F / 21°C 57°F / 14°C 64% 30.06 in
(1018 mb)
S 10.4 mph
(S 17 kph)
- 10SM
11:13
Clear
70°F / 21°C 57°F / 14°C 64% 30.06 in
(1018 mb)
S 5.8 mph
(S 9 kph)
- 10SM
10:53
Partly Cloudy
70°F / 21°C 57°F / 14°C 64% 30.06 in
(1018 mb)
SSE 9.2 mph
(SSE 15 kph)
- 10SM
10:33
Mostly Cloudy
68°F / 20°C 57°F / 14°C 69% 30.09 in
(1019 mb)
SSE 8.1 mph
(SSE 13 kph)
- 10SM
10:13
Partly Cloudy
68°F / 20°C 57°F / 14°C 69% 30.09 in
(1019 mb)
S 10.4 mph
(S 17 kph)
- 10SM
09:53
Partly Cloudy
68°F / 20°C 57°F / 14°C 69% 30.09 in
(1019 mb)
S 4.6 mph
(S 7 kph)
- 10SM
09:33
Overcast
68°F / 20°C 57°F / 14°C 69% 30.09 in
(1019 mb)
SSE 8.1 mph
(SSE 13 kph)
- 10SM
09:13
Overcast
66°F / 19°C 57°F / 14°C 73% 30.09 in
(1019 mb)
S 4.6 mph
(S 7 kph)
- 10SM
08:53
Overcast
66°F / 19°C 57°F / 14°C 73% 30.12 in
(1020 mb)
S 5.8 mph
(S 9 kph)
- 10SM
08:33
Overcast
66°F / 19°C 57°F / 14°C 73% 30.12 in
(1020 mb)
SSE 3.5 mph
(SSE 6 kph)
- 10SM
08:13
Overcast
64°F / 18°C 55°F / 13°C 73% 30.09 in
(1019 mb)
S 5.8 mph
(S 9 kph)
- 10SM
07:53
Mostly Cloudy
64°F / 18°C 55°F / 13°C 73% 30.09 in
(1019 mb)
SSE 3.5 mph
(SSE 6 kph)
- 10SM
07:33
Partly Cloudy
63°F / 17°C 57°F / 14°C 83% 30.12 in
(1020 mb)
SSE 3.5 mph
(SSE 6 kph)
- 10SM
07:13
Clear
61°F / 16°C 55°F / 13°C 83% 30.12 in
(1020 mb)
S 3.5 mph
(S 6 kph)
- 10SM
06:53
Partly Cloudy
59°F / 15°C 55°F / 13°C 88% 30.12 in
(1020 mb)
Calm - 10SM
06:33
Partly Cloudy
57°F / 14°C 54°F / 12°C 88% 30.12 in
(1020 mb)
Calm - 10SM
06:13
Mostly Cloudy
57°F / 14°C 54°F / 12°C 88% 30.12 in
(1020 mb)
Calm - 10SM
05:52
Mostly Cloudy
57°F / 14°C 54°F / 12°C 88% 30.12 in
(1020 mb)
Calm - 10SM
05:33
Mostly Cloudy
57°F / 14°C 54°F / 12°C 88% 30.12 in
(1020 mb)
Calm - 10SM
05:13
Mostly Cloudy
55°F / 13°C 54°F / 12°C 94% 30.12 in
(1020 mb)
Calm - 10SM
04:53
Partly Cloudy
54°F / 12°C 52°F / 11°C 94% 30.09 in
(1019 mb)
Calm - 10SM
04:33
Clear
54°F / 12°C 50°F / 10°C 88% 30.09 in
(1019 mb)
Calm - 10SM
04:12
Clear
57°F / 14°C 54°F / 12°C 88% 30.09 in
(1019 mb)
Calm - 10SM
03:53
Partly Cloudy
57°F / 14°C 54°F / 12°C 88% 30.09 in
(1019 mb)
Calm - 10SM
03:33
Fair
55°F / 13°C 52°F / 11°C 88% 30.09 in
(1019 mb)
E 5.8 mph
(E 9 kph)
-
03:12
Mostly Cloudy
55°F / 13°C 54°F / 12°C 94% 30.12 in
(1020 mb)
Calm - 10SM
02:53
Mostly Cloudy
55°F / 13°C 52°F / 11°C 88% 30.12 in
(1020 mb)
SW 4.6 mph
(SW 7 kph)
- 10SM
02:33
Mostly Cloudy
55°F / 13°C 54°F / 12°C 94% 30.12 in
(1020 mb)
SW 3.5 mph
(SW 6 kph)
- 10SM
02:13
Clear
54°F / 12°C 50°F / 10°C 88% 30.09 in
(1019 mb)
Calm - 10SM
01:53
Clear
52°F / 11°C 50°F / 10°C 94% 30.09 in
(1019 mb)
Calm - 10SM
01:33
Clear
55°F / 13°C 54°F / 12°C 94% 30.09 in
(1019 mb)
Calm - 10SM
01:13
Partly Cloudy
55°F / 13°C 52°F / 11°C 88% 30.09 in
(1019 mb)
Calm - 10SM
00:53
Partly Cloudy
54°F / 12°C 52°F / 11°C 94% 30.12 in
(1020 mb)
Calm - 10SM
00:33
Partly Cloudy
55°F / 13°C 54°F / 12°C 94% 30.12 in
(1020 mb)
Calm - 10SM
00:13
Partly Cloudy
57°F / 14°C 54°F / 12°C 88% 30.12 in
(1020 mb)
Calm - 10SM
Time Weather Temperature Dewpoint Humidity Pressure Winds Precip Visibility


Weather for websites

WeatherForYou.com, LLC is not responsible for any damages or problems caused by this service. Current weather conditions are obtained from the closest station including government and personal stations which may have varying degrees of accuracy. Weather forecasts are derived from the NOAA NDFD. Like all things, this site belongs to Jesus Christ... He just trusts us to maintain it. If you have any questions or comments email webmaster@weatherforyou.com

Copyright © 2015, WeatherForYou.com LLC. All rights reserved.